AAL814 KLGA-KBOS

Flight info

Callsign AAL814
Flight time 0h 41m
Altitude 21000
Route MERIT ROBUC3
Aircraft B38M/M-SDE1FGHILORVWXY/HB1

Departure

Time 2026-05-03 21:46
Airport LaGuardia Airport (KLGA)

Arrival

Time 2026-05-03 22:28
Airport Boston Logan International Airport (KBOS)
Time Latitude Longitude Altitude Speed Heading
2026-05-03 21:18 40.77146 -73.86378 25 ft 0 kts 132°
2026-05-03 21:18 40.77142 -73.86371 22 ft 0 kts 132°
2026-05-03 21:36 40.77155 -73.86391 23 ft 3 kts 132°
2026-05-03 21:36 40.77167 -73.86411 24 ft 4 kts 93°
2026-05-03 21:36 40.77160 -73.86430 22 ft 1 kts 42°
2026-05-03 21:36 40.77178 -73.86409 22 ft 4 kts 42°
2026-05-03 21:37 40.77198 -73.86385 24 ft 4 kts 42°
2026-05-03 21:37 40.77218 -73.86361 24 ft 4 kts 42°
2026-05-03 21:37 40.77232 -73.86344 24 ft 0 kts 42°
2026-05-03 21:40 40.77233 -73.86343 22 ft 1 kts 42°
2026-05-03 21:40 40.77268 -73.86313 19 ft 13 kts 22°
2026-05-03 21:41 40.77330 -73.86364 15 ft 14 kts 302°
2026-05-03 21:41 40.77391 -73.86494 16 ft 18 kts 301°
2026-05-03 21:41 40.77458 -73.86639 15 ft 19 kts 301°
2026-05-03 21:41 40.77539 -73.86786 15 ft 20 kts 309°
2026-05-03 21:42 40.77617 -73.86943 16 ft 21 kts 301°
2026-05-03 21:42 40.77694 -73.87110 18 ft 21 kts 301°
2026-05-03 21:42 40.77760 -73.87256 18 ft 17 kts 296°
2026-05-03 21:42 40.77761 -73.87416 20 ft 18 kts 251°
2026-05-03 21:43 40.77688 -73.87542 22 ft 17 kts 215°
2026-05-03 21:43 40.77611 -73.87621 24 ft 11 kts 253°
2026-05-03 21:43 40.77582 -73.87714 24 ft 12 kts 214°
2026-05-03 21:43 40.77507 -73.87778 23 ft 14 kts 212°
2026-05-03 21:44 40.77418 -73.87851 25 ft 16 kts 211°
2026-05-03 21:44 40.77316 -73.87933 23 ft 18 kts 212°
2026-05-03 21:44 40.77204 -73.88028 26 ft 20 kts 213°
2026-05-03 21:44 40.77084 -73.88127 25 ft 21 kts 213°
2026-05-03 21:45 40.77005 -73.88206 28 ft 13 kts 224°
2026-05-03 21:45 40.76954 -73.88270 30 ft 9 kts 225°
2026-05-03 21:45 40.76921 -73.88340 32 ft 10 kts 249°
2026-05-03 21:45 40.76938 -73.88393 33 ft 4 kts 356°
2026-05-03 21:46 40.77038 -73.88319 30 ft 45 kts 32°
2026-05-03 21:46 40.77541 -73.87902 27 ft 123 kts 32°
2026-05-03 21:46 40.78447 -73.87146 45 ft 180 kts 31°
2026-05-03 21:46 40.79523 -73.86149 662 ft 194 kts 28°
2026-05-03 21:47 40.80710 -73.85229 1495 ft 201 kts 21°
2026-05-03 21:47 40.81952 -73.84249 2287 ft 218 kts 26°
2026-05-03 21:47 40.83318 -73.83101 2987 ft 241 kts 27°
2026-05-03 21:47 40.84724 -73.81893 4196 ft 244 kts 27°
2026-05-03 21:48 40.86159 -73.80640 5257 ft 251 kts 27°
2026-05-03 21:48 40.87632 -73.79352 6308 ft 257 kts 26°
2026-05-03 21:48 40.89139 -73.78032 7320 ft 263 kts 29°
2026-05-03 21:48 40.90570 -73.76461 8341 ft 271 kts 36°
2026-05-03 21:49 40.91936 -73.74706 9404 ft 276 kts 39°
2026-05-03 21:49 40.93254 -73.72881 10340 ft 281 kts 39°
2026-05-03 21:49 40.94666 -73.70994 10932 ft 298 kts 38°
2026-05-03 21:49 40.96182 -73.68991 11726 ft 303 kts 38°
2026-05-03 21:50 40.97638 -73.67079 12929 ft 297 kts 38°
2026-05-03 21:50 40.99122 -73.65140 13785 ft 303 kts 38°
2026-05-03 21:50 41.00640 -73.63159 14480 ft 310 kts 37°
2026-05-03 21:50 41.02184 -73.61143 15240 ft 313 kts 37°
2026-05-03 21:51 41.03741 -73.59107 16006 ft 317 kts 37°
2026-05-03 21:51 41.05320 -73.57044 16757 ft 320 kts 37°
2026-05-03 21:51 41.06914 -73.54960 17484 ft 324 kts 37°
2026-05-03 21:51 41.08527 -73.52849 18212 ft 327 kts 37°
2026-05-03 21:52 41.10156 -73.50716 18831 ft 331 kts 37°
2026-05-03 21:52 41.11802 -73.48558 19443 ft 335 kts 37°
2026-05-03 21:52 41.13465 -73.46377 20043 ft 338 kts 37°
2026-05-03 21:52 41.15145 -73.44171 20625 ft 342 kts 37°
2026-05-03 21:53 41.16852 -73.41928 20893 ft 346 kts 37°
2026-05-03 21:53 41.18558 -73.39686 20920 ft 345 kts 37°
2026-05-03 21:53 41.20260 -73.37444 20920 ft 344 kts 37°
2026-05-03 21:53 41.21955 -73.35213 20909 ft 343 kts 37°
2026-05-03 21:54 41.23655 -73.32975 20906 ft 350 kts 37°
2026-05-03 21:54 41.25421 -73.30649 20908 ft 365 kts 38°
2026-05-03 21:54 41.27267 -73.28214 20884 ft 383 kts 38°
2026-05-03 21:54 41.29188 -73.25674 20879 ft 394 kts 38°
2026-05-03 21:55 41.31147 -73.23082 20891 ft 399 kts 38°
2026-05-03 21:55 41.32451 -73.21356 20896 ft 400 kts 38°
2026-05-03 21:55 41.34423 -73.18744 20906 ft 400 kts 38°
2026-05-03 21:55 41.36376 -73.16091 20896 ft 404 kts 44°
2026-05-03 21:56 41.37873 -73.12885 20892 ft 415 kts 62°
2026-05-03 21:56 41.38636 -73.09141 20916 ft 424 kts 77°
2026-05-03 21:56 41.39086 -73.05265 20903 ft 424 kts 77°
2026-05-03 21:56 41.39528 -73.01371 20904 ft 425 kts 77°
2026-05-03 21:57 41.39955 -72.97479 20894 ft 425 kts 77°
2026-05-03 21:57 41.40375 -72.93586 20912 ft 425 kts 78°
2026-05-03 21:57 41.40793 -72.89691 20893 ft 425 kts 78°
2026-05-03 21:57 41.41210 -72.85789 20895 ft 425 kts 78°
2026-05-03 21:58 41.41625 -72.81890 20897 ft 425 kts 78°
2026-05-03 21:58 41.42039 -72.77992 20892 ft 425 kts 78°
2026-05-03 21:58 41.42451 -72.74089 20891 ft 425 kts 78°
2026-05-03 21:58 41.42862 -72.70190 20892 ft 425 kts 78°
2026-05-03 21:59 41.43273 -72.66284 20887 ft 425 kts 78°
2026-05-03 21:59 41.43681 -72.62382 20886 ft 425 kts 78°
2026-05-03 21:59 41.44088 -72.58478 20897 ft 426 kts 78°
2026-05-03 21:59 41.44495 -72.54564 20889 ft 426 kts 78°
2026-05-03 22:00 41.44900 -72.50653 20886 ft 426 kts 78°
2026-05-03 22:00 41.45299 -72.46790 20883 ft 426 kts 78°
2026-05-03 22:00 41.45703 -72.42872 20890 ft 427 kts 78°
2026-05-03 22:00 41.46104 -72.38956 20886 ft 427 kts 78°
2026-05-03 22:01 41.46505 -72.35037 20890 ft 426 kts 78°
2026-05-03 22:01 41.46903 -72.31122 20885 ft 426 kts 78°
2026-05-03 22:01 41.47302 -72.27206 20883 ft 426 kts 78°
2026-05-03 22:01 41.47704 -72.23287 20892 ft 426 kts 77°
2026-05-03 22:02 41.48547 -72.19563 20863 ft 416 kts 60°
2026-05-03 22:02 41.49781 -72.16072 20879 ft 417 kts 59°
2026-05-03 22:02 41.51024 -72.12584 20872 ft 416 kts 59°
2026-05-03 22:02 41.52281 -72.09102 20877 ft 416 kts 59°
2026-05-03 22:03 41.53545 -72.05626 20880 ft 416 kts 59°
2026-05-03 22:03 41.54810 -72.02151 20879 ft 416 kts 59°
2026-05-03 22:03 41.55983 -71.98609 20877 ft 415 kts 63°
2026-05-03 22:03 41.57031 -71.95109 20893 ft 398 kts 63°
2026-05-03 22:04 41.58056 -71.91738 20776 ft 387 kts 62°
2026-05-03 22:04 41.59069 -71.88431 20413 ft 384 kts 62°
2026-05-03 22:04 41.60055 -71.85124 19969 ft 383 kts 63°
2026-05-03 22:04 41.61028 -71.81825 19590 ft 380 kts 63°
2026-05-03 22:05 41.61995 -71.78550 19187 ft 378 kts 63°
2026-05-03 22:05 41.62955 -71.75295 18798 ft 376 kts 63°
2026-05-03 22:05 41.63911 -71.72053 18405 ft 374 kts 63°
2026-05-03 22:05 41.64861 -71.68827 17983 ft 372 kts 63°
2026-05-03 22:06 41.65807 -71.65613 17550 ft 370 kts 63°
2026-05-03 22:06 41.66743 -71.62427 17205 ft 365 kts 63°
2026-05-03 22:06 41.67656 -71.59316 17071 ft 355 kts 63°
2026-05-03 22:06 41.68558 -71.56238 16639 ft 354 kts 63°
2026-05-03 22:07 41.69447 -71.53198 16387 ft 348 kts 63°
2026-05-03 22:07 41.70324 -71.50200 16061 ft 345 kts 63°
2026-05-03 22:07 41.71192 -71.47226 15720 ft 342 kts 63°
2026-05-03 22:07 41.72054 -71.44267 15359 ft 340 kts 63°
2026-05-03 22:08 41.73097 -71.41484 15029 ft 330 kts 52°
2026-05-03 22:08 41.74264 -71.38843 14763 ft 330 kts 53°
2026-05-03 22:08 41.75408 -71.36177 14507 ft 331 kts 54°
2026-05-03 22:08 41.76541 -71.33498 14239 ft 330 kts 54°
2026-05-03 22:09 41.77662 -71.30822 13960 ft 328 kts 54°
2026-05-03 22:09 41.78765 -71.28201 13678 ft 327 kts 54°
2026-05-03 22:09 41.79894 -71.25567 13339 ft 324 kts 54°
2026-05-03 22:10 41.82114 -71.20360 12786 ft 322 kts 54°
2026-05-03 22:10 41.83220 -71.17757 12524 ft 321 kts 54°
2026-05-03 22:10 41.84321 -71.15169 12260 ft 317 kts 54°
2026-05-03 22:10 41.85405 -71.12619 12003 ft 312 kts 54°
2026-05-03 22:11 41.86485 -71.10126 11788 ft 306 kts 54°
2026-05-03 22:11 41.87538 -71.07694 11615 ft 298 kts 54°
2026-05-03 22:11 41.88564 -71.05319 11443 ft 291 kts 54°
2026-05-03 22:11 41.89574 -71.02980 11278 ft 290 kts 54°
2026-05-03 22:12 41.90584 -71.00638 11118 ft 290 kts 54°
2026-05-03 22:12 41.91592 -70.98299 10930 ft 289 kts 54°
2026-05-03 22:12 41.92596 -70.95967 10760 ft 288 kts 54°
2026-05-03 22:12 41.93596 -70.93642 10588 ft 288 kts 54°
2026-05-03 22:13 41.94595 -70.91318 10416 ft 287 kts 54°
2026-05-03 22:13 41.95589 -70.89006 10237 ft 286 kts 54°
2026-05-03 22:13 41.96579 -70.86697 10057 ft 284 kts 54°
2026-05-03 22:13 41.97562 -70.84405 9877 ft 282 kts 54°
2026-05-03 22:14 41.98541 -70.82122 9701 ft 281 kts 54°
2026-05-03 22:14 41.99512 -70.79854 9509 ft 278 kts 54°
2026-05-03 22:14 42.00463 -70.77633 9331 ft 271 kts 54°
2026-05-03 22:14 42.01484 -70.75565 9132 ft 260 kts 43°
2026-05-03 22:15 42.02682 -70.73793 8919 ft 253 kts 41°
2026-05-03 22:15 42.03855 -70.72061 8744 ft 248 kts 41°
2026-05-03 22:15 42.05014 -70.70338 8660 ft 249 kts 41°
2026-05-03 22:15 42.06176 -70.68605 8551 ft 249 kts 41°
2026-05-03 22:16 42.07333 -70.66874 8353 ft 248 kts 41°
2026-05-03 22:16 42.08485 -70.65148 8176 ft 247 kts 41°
2026-05-03 22:16 42.09632 -70.63431 8027 ft 246 kts 41°
2026-05-03 22:16 42.10953 -70.62130 7831 ft 234 kts 15°
2026-05-03 22:17 42.12498 -70.61567 7640 ft 229 kts
2026-05-03 22:17 42.14055 -70.61118 7469 ft 229 kts
2026-05-03 22:17 42.15613 -70.60713 7277 ft 228 kts
2026-05-03 22:17 42.17170 -70.60338 7106 ft 227 kts
2026-05-03 22:18 42.18726 -70.59978 6924 ft 227 kts
2026-05-03 22:18 42.20280 -70.59628 6738 ft 226 kts
2026-05-03 22:18 42.21830 -70.59286 6561 ft 225 kts
2026-05-03 22:18 42.23376 -70.58949 6387 ft 225 kts
2026-05-03 22:19 42.24918 -70.58617 6196 ft 224 kts
2026-05-03 22:19 42.26456 -70.58286 6018 ft 223 kts
2026-05-03 22:19 42.27986 -70.57958 5830 ft 222 kts
2026-05-03 22:19 42.29515 -70.57630 5654 ft 223 kts
2026-05-03 22:20 42.31043 -70.57303 5474 ft 222 kts
2026-05-03 22:20 42.32565 -70.56976 5303 ft 221 kts
2026-05-03 22:20 42.34082 -70.56777 5109 ft 216 kts 348°
2026-05-03 22:20 42.35406 -70.57542 5003 ft 206 kts 318°
2026-05-03 22:21 42.36369 -70.58954 4704 ft 206 kts 307°
2026-05-03 22:21 42.37185 -70.60530 4471 ft 201 kts 304°
2026-05-03 22:21 42.37954 -70.62047 4357 ft 191 kts 304°
2026-05-03 22:21 42.38713 -70.63625 4507 ft 204 kts 300°
2026-05-03 22:22 42.39317 -70.65337 4505 ft 198 kts 293°
2026-05-03 22:22 42.39803 -70.67063 4250 ft 196 kts 290°
2026-05-03 22:22 42.40129 -70.68872 3866 ft 200 kts 283°
2026-05-03 22:22 42.40251 -70.70735 3632 ft 199 kts 272°
2026-05-03 22:23 42.40133 -70.72572 3457 ft 190 kts 266°
2026-05-03 22:23 42.39917 -70.74281 3290 ft 180 kts 268°
2026-05-03 22:23 42.39792 -70.75965 3093 ft 179 kts 270°
2026-05-03 22:23 42.39690 -70.77645 3019 ft 180 kts 270°
2026-05-03 22:24 42.39589 -70.79346 2964 ft 181 kts 269°
2026-05-03 22:24 42.39331 -70.81012 2743 ft 182 kts 260°
2026-05-03 22:24 42.38946 -70.82645 2450 ft 180 kts 259°
2026-05-03 22:24 42.38593 -70.84222 2123 ft 169 kts 260°
2026-05-03 22:25 42.38305 -70.85657 1918 ft 151 kts 262°
2026-05-03 22:25 42.38069 -70.86987 1665 ft 141 kts 264°
2026-05-03 22:25 42.37863 -70.88276 1527 ft 139 kts 266°
2026-05-03 22:25 42.37680 -70.89555 1378 ft 138 kts 265°
2026-05-03 22:26 42.37468 -70.90825 1250 ft 139 kts 262°
2026-05-03 22:26 42.37228 -70.92053 1027 ft 131 kts 261°
2026-05-03 22:26 42.36977 -70.93224 841 ft 130 kts 262°
2026-05-03 22:26 42.36801 -70.94309 718 ft 135 kts 264°
2026-05-03 22:27 42.36631 -70.95383 571 ft 140 kts 262°
2026-05-03 22:27 42.36391 -70.96655 376 ft 140 kts 262°
2026-05-03 22:27 42.36167 -70.97901 201 ft 130 kts 262°
2026-05-03 22:28 42.35972 -70.99020 32 ft 114 kts 263°
2026-05-03 22:28 42.35832 -70.99855 28 ft 59 kts 256°
2026-05-03 22:28 42.35760 -71.00261 28 ft 34 kts 256°
2026-05-03 22:28 42.35765 -71.00486 28 ft 24 kts 278°
2026-05-03 22:29 42.35791 -71.00715 28 ft 25 kts 278°
2026-05-03 22:29 42.35815 -71.00947 28 ft 25 kts 277°
2026-05-03 22:29 42.35836 -71.01169 28 ft 24 kts 277°
2026-05-03 22:29 42.35858 -71.01373 28 ft 21 kts 279°
2026-05-03 22:30 42.35884 -71.01555 28 ft 19 kts 282°
2026-05-03 22:30 42.35902 -71.01706 28 ft 7 kts 285°
2026-05-03 22:30 42.35943 -71.01743 28 ft 7 kts 355°
2026-05-03 22:30 42.35972 -71.01746 28 ft 2 kts 354°
2026-05-03 22:31 42.35975 -71.01746 28 ft 0 kts 354°